Back to catalog

ATLAS AGENA R/B

AliveMEO
NORAD 27785·ROCKET BODY·🇺🇸 United States

Launched Aug 6, 1968 from Cape Canaveral Space Force Station

Loading…

Next Passes (next 24 hours)

TLE

FreshSource: Space-Track

Epoch: Sep 14, 2026, 13:13 UTC

1 27785U 68063B   26257.55082298 -.00000226  00000-0  00000-0 0  9994
2 27785   4.1671 263.1810 1014496 271.5700  76.4765  1.01777574 27292

Track ATLAS AGENA R/B in real time with AllMySat

Download on the App Store